Wind_Speed
13 15 15 14 13 12 11 10 10 11 13 17 20 22 23 24 27 30 32 33 34 35 36 37 38 38 38 38 39 37 38 38 41 45 47 46 47 48 49 50 48 49 48 47 46 47 45 45 44
13 13 12 11 8 10 12 11 11 13 13 12 13 15 16 18 21 24 27 29 31 32 33 34 35 35 36 37 38 38 43 42 43 45 48 50 50 49 50 54 55 55 55 53 52 51 52 51 51
13 12 9 7 6 7 12 12 11 11 12 13 12 12 12 17 19 20 23 25 28 29 30 32 33 35 36 36 38 41 42 45 46 47 49 51 55 54 55 60 61 61 60 59 59 58 58 56 56
13 10 7 8 8 10 11 12 10 9 9 12 11 10 12 17 20 22 23 26 28 29 31 35 36 36 36 35 34 36 37 37 38 38 42 45 49 47 43 44 50 57 63 67 66 64 64 64 65
14 12 10 11 15 13 14 12 9 7 10 12 10 12 14 17 19 21 23 25 28 30 33 34 35 36 37 39 35 33 32 32 32 31 34 37 33 38 37 37 47 53 54 64 69 72 74 76 73
14 15 12 10 16 16 14 14 12 9 9 10 11 10 15 18 18 22 24 24 25 26 26 23 29 34 35 35 36 35 38 36 35 34 33 40 44 44 44 46 48 51 52 53 61 66 69 72 73
14 18 14 11 14 15 15 13 14 11 12 13 11 12 16 18 22 23 23 21 21 18 18 17 18 22 23 29 31 35 39 42 46 45 48 50 52 52 54 55 54 57 54 54 53 56 63 70 73
13 17 17 15 15 15 16 16 16 15 15 14 12 14 18 20 22 20 20 21 23 22 18 20 23 24 26 31 35 37 36 42 47 48 49 56 50 57 61 59 53 47 44 44 44 53 58 64 73
12 14 16 19 20 15 16 16 18 19 16 16 14 15 20 21 20 19 21 22 22 23 22 20 20 19 20 24 28 31 31 35 41 48 50 48 46 41 44 48 44 41 43 46 48 45 49 58 64
12 14 15 17 20 18 17 18 18 17 14 16 17 16 20 22 18 15 16 18 20 22 21 19 22 19 21 26 30 30 32 35 38 42 44 45 44 42 41 42 41 43 46 46 47 47 47 49 55
14 15 17 19 21 21 20 20 20 17 16 17 17 18 22 26 22 16 17 20 24 27 26 25 24 26 28 33 36 39 39 41 41 40 38 40 39 38 39 40 41 44 47 48 49 47 45 46 47
15 17 17 18 18 20 22 23 22 17 19 20 19 20 23 27 25 24 24 25 28 29 29 29 28 30 30 36 38 40 44 44 47 44 42 39 38 38 40 43 44 44 44 44 45 47 48 48 51
17 17 19 20 20 20 23 26 21 18 21 23 24 24 25 28 28 28 29 30 32 32 33 33 31 33 33 38 39 42 43 46 50 49 48 46 44 42 44 45 45 46 45 45 45 47 50 51 53
17 18 18 18 19 19 23 26 22 21 22 24 26 27 28 29 30 32 33 34 34 35 34 35 35 35 40 43 43 43 44 45 47 49 49 47 45 45 46 47 46 46 47 47 49 50 52 54 59
18 17 18 18 18 19 22 26 23 22 24 25 27 28 26 29 31 34 35 37 39 37 38 35 38 41 43 47 46 46 47 46 49 51 53 48 46 46 48 49 49 47 47 49 52 53 56 57 60
17 18 18 19 18 20 23 24 26 25 26 27 29 28 30 33 35 38 40 40 41 40 41 42 41 42 44 48 48 49 50 48 52 54 56 53 50 50 51 52 51 51 50 52 55 57 58 59 59
17 17 18 20 21 21 22 24 27 29 29 31 34 35 34 35 40 41 42 43 44 44 45 42 41 43 46 49 49 51 52 52 55 57 59 56 53 53 53 54 54 54 55 57 58 61 60 60 59
17 18 21 23 22 22 23 24 27 28 31 33 33 33 36 39 42 43 45 46 44 45 42 41 42 44 47 50 52 52 54 56 58 61 64 63 62 60 59 58 57 57 58 59 59 61 62 63 62
18 21 23 24 25 23 23 24 28 30 30 31 32 33 36 40 44 44 45 45 43 41 40 41 43 46 50 53 53 54 59 61 62 67 70 70 68 66 65 63 62 62 64 64 63 63 64 66 64
21 23 22 23 24 24 26 27 29 30 32 33 35 36 37 40 41 41 39 38 38 42 46 47 50 53 55 56 57 60 63 68 72 76 74 72 73 72 69 67 68 69 69 68 65 64 65 67 67
21 20 22 22 21 24 27 31 31 33 35 36 36 37 38 39 39 37 36 38 41 45 51 54 56 57 58 60 62 65 71 75 75 74 75 76 76 74 74 73 74 73 73 73 71 68 68 70 70
19 19 20 19 19 23 27 30 30 33 35 36 35 35 37 39 39 39 41 44 47 52 57 59 61 62 61 64 67 72 76 75 76 78 80 79 80 81 82 83 83 81 81 79 77 75 75 75 73
18 19 21 22 22 25 27 29 32 33 34 35 36 37 39 41 43 45 46 50 54 57 59 61 63 65 67 70 75 77 78 79 80 80 82 85 86 87 92 92 89 88 87 85 83 81 81 78 76
18 20 21 24 25 26 27 28 31 34 36 38 40 42 44 46 47 50 52 54 56 58 61 64 65 67 72 77 80 80 81 82 83 87 89 90 92 96 97 94 93 89 86 85 85 83 81 80 76
20 21 22 24 26 27 28 30 32 34 37 41 44 48 49 50 51 53 55 56 57 62 63 64 68 72 78 79 80 82 83 85 89 93 93 96 96 92 88 85 83 79 76 73 75 74 75 72 68
22 21 23 24 25 26 29 32 34 36 39 42 46 48 49 51 53 55 57 56 61 63 65 69 74 79 80 83 87 87 90 93 96 100 99 92 84 78 77 76 71 69 66 62 59 60 64 63 63
25 24 24 26 27 30 32 35 36 38 41 43 47 49 52 56 59 60 56 60 62 67 72 75 80 82 84 88 91 93 95 99 102 96 85 75 71 69 68 70 68 65 62 59 63 59 57 54 60
27 27 29 30 31 34 38 39 40 41 44 46 49 53 56 58 58 57 60 64 67 72 77 83 85 85 89 94 97 98 102 101 92 80 75 71 67 64 63 65 65 60 59 59 53 52 51 56 62
29 29 32 35 36 37 40 45 43 45 47 49 52 56 57 57 59 61 64 69 73 79 83 85 87 90 94 98 102 106 101 90 83 81 76 71 66 63 61 60 60 57 54 50 42 45 52 59 60
34 34 36 39 41 42 42 47 49 51 51 52 53 56 59 61 63 65 68 74 80 83 84 88 92 96 98 103 108 100 91 86 83 81 78 71 66 59 55 54 50 48 45 38 39 48 54 58 57
Wind_Direction
303 299 299 295 295 289 279 286 297 298 283 274 270 268 271 274 279 282 282 280 279 278 279 280 279 278 277 274 275 271 270 270 268 265 262 261 263 264 262 263 264 262 263 259 257 255 253 250 248
301 298 294 286 291 296 298 305 305 299 300 296 290 290 293 293 288 287 288 290 291 292 289 284 279 278 275 273 272 269 265 266 264 263 262 260 260 260 262 263 262 260 261 262 261 259 256 251 249
302 298 303 306 304 306 308 303 302 304 303 299 297 293 306 307 304 298 295 294 293 290 287 285 283 281 279 277 275 271 270 268 269 267 265 264 263 265 267 264 264 264 261 258 259 260 258 254 252
300 295 286 293 295 311 301 293 287 287 289 293 304 310 307 306 301 298 299 298 294 290 288 284 283 279 279 278 279 279 274 270 270 269 265 265 264 262 260 263 263 264 263 260 256 254 256 255 254
296 294 293 301 310 313 302 289 282 268 271 283 298 317 315 307 308 311 307 300 297 291 288 288 289 288 284 280 273 271 268 262 261 257 261 256 263 261 258 265 266 262 261 259 258 258 256 255 254
290 293 296 314 320 312 305 304 293 275 283 295 312 316 313 312 315 316 312 307 303 303 300 310 309 301 299 295 290 282 274 264 252 262 267 276 270 261 261 272 269 271 260 260 257 255 253 253 251
292 295 301 312 312 311 309 307 298 290 292 313 323 316 315 315 322 320 320 321 319 317 338 323 330 329 318 317 305 292 276 288 272 270 264 280 282 268 268 289 283 280 269 262 261 260 256 252 250
293 298 306 315 309 308 313 307 297 297 303 311 310 317 312 319 324 325 335 344 355 357 346 332 325 323 322 312 301 294 288 288 271 279 281 287 283 279 274 283 285 278 272 272 268 261 258 255 252
301 303 313 310 310 301 291 285 287 289 297 303 300 311 311 320 327 345 353 1 4 8 7 3 352 333 323 322 315 311 304 292 286 283 288 290 293 293 281 282 283 287 285 284 283 277 267 262 259
294 295 296 299 298 291 282 275 276 282 294 291 296 304 305 308 319 336 347 357 359 356 356 355 347 345 343 342 344 339 330 322 316 307 304 302 301 297 293 291 291 291 291 288 284 281 277 268 262
290 290 298 303 300 291 282 280 273 272 281 283 286 287 294 302 310 310 314 321 327 330 332 333 329 330 334 337 335 334 335 336 330 326 313 309 304 300 296 295 294 292 289 287 287 283 281 278 277
284 289 291 291 292 294 288 284 275 280 289 289 286 288 293 299 303 300 303 310 317 319 320 326 329 329 323 326 326 327 332 336 337 331 325 312 305 306 308 305 299 294 290 285 280 278 277 277 277
283 286 294 300 304 298 293 289 282 288 290 293 292 293 292 297 305 308 313 315 316 317 318 320 325 321 319 319 321 324 328 333 337 335 330 322 314 311 310 308 303 299 294 290 287 284 283 277 279
286 290 296 300 300 297 295 293 288 291 293 291 289 292 297 302 310 316 316 315 317 319 318 317 321 317 320 321 320 320 323 327 332 334 329 325 319 313 312 312 306 301 297 295 293 291 292 288 287
287 288 288 295 294 285 283 288 289 287 289 291 289 288 298 301 308 312 312 312 315 319 318 313 312 316 319 318 317 317 318 324 328 329 330 324 321 314 310 310 306 301 298 295 293 290 289 286 284
289 293 297 304 293 282 278 281 283 282 281 284 285 290 295 304 308 311 310 312 314 314 312 311 311 313 315 313 313 313 315 319 323 326 327 326 319 317 313 310 306 301 298 295 291 288 287 286 285
285 285 295 294 287 273 267 274 279 282 279 279 279 281 292 301 305 307 307 307 308 312 311 308 309 310 309 310 309 309 312 314 318 321 322 323 317 315 313 309 305 302 299 297 295 295 293 292 292
293 295 298 299 291 274 268 273 280 284 285 282 281 288 297 301 302 303 302 303 306 308 306 307 310 308 308 309 308 308 310 312 313 316 318 319 319 316 314 308 305 303 300 298 295 293 293 292 292
298 298 298 297 289 285 284 283 285 285 283 287 293 298 303 303 299 302 304 307 309 310 312 310 308 308 309 309 309 308 309 312 314 315 318 318 318 315 312 309 306 304 300 299 296 294 291 290 291
291 291 299 297 300 294 293 294 294 294 296 299 303 304 302 298 300 303 307 309 312 314 310 310 312 316 315 313 311 310 313 316 316 318 317 317 314 312 309 307 304 301 299 297 295 292 292 291 291
297 306 307 312 306 298 298 297 296 296 298 302 303 303 303 303 307 310 309 311 312 310 311 315 318 318 316 314 313 316 317 317 316 315 314 312 310 308 307 305 302 299 297 295 294 292 291 290 290
308 318 314 307 298 292 287 289 293 297 301 303 305 304 304 306 311 310 310 313 312 313 315 317 317 316 315 315 316 316 316 315 315 314 312 311 310 307 305 304 302 300 296 294 293 292 291 290 290
312 312 305 299 294 289 290 295 298 301 301 301 302 303 304 308 310 311 307 313 315 313 314 314 314 316 318 317 317 317 316 315 313 312 311 310 307 306 304 302 300 297 295 293 293 292 292 291 290
314 312 310 305 298 295 297 296 298 299 298 298 299 301 304 310 312 310 311 312 312 313 314 315 317 317 315 315 315 315 314 314 312 312 310 308 306 304 301 300 298 297 295 292 291 290 290 291 289
311 310 305 302 301 303 303 300 300 299 299 301 302 303 306 308 309 313 312 311 313 316 316 316 315 315 316 316 315 313 312 312 311 310 308 305 303 301 299 299 299 299 298 294 290 289 288 289 289
300 301 304 304 302 299 298 299 301 300 300 301 303 307 310 311 312 311 311 310 314 315 314 314 314 315 315 315 313 314 314 312 311 310 308 306 305 303 302 302 301 300 301 299 298 294 293 290 290
288 289 295 298 300 301 301 298 299 300 302 304 306 307 309 311 312 310 309 313 314 313 314 314 314 314 314 315 315 312 312 312 311 309 308 306 304 303 300 299 300 300 299 297 298 297 294 294 294
288 288 293 295 298 299 299 298 298 298 300 303 306 309 311 310 309 310 309 311 313 313 313 314 314 315 313 314 312 312 313 313 311 309 306 305 301 298 298 296 297 300 301 302 298 296 296 298 300
283 284 290 293 294 295 296 297 297 300 304 306 306 309 308 310 311 308 309 311 312 313 314 315 315 314 313 313 314 315 315 314 311 311 309 308 304 299 296 294 297 300 300 300 297 298 301 304 309
282 285 290 291 292 292 293 296 300 302 303 303 305 307 308 309 309 309 309 311 313 314 315 315 315 314 314 315 317 316 315 316 316 313 311 309 305 300 296 294 297 299 298 298 302 304 309 311 316
Height
10941 10939 10939 10938 10939 10939 10938 10938 10939 10940 10940 10939 10940 10940 10940 10941 10940 10939 10938 10938 10937 10936 10935 10934 10932 10931 10931 10930 10929 10927 10926 10925 10925 10925 10923 10922 10920 10920 10919 10920 10920 10920 10921 10922 10923 10924 10924 10925 10925
10938 10938 10938 10938 10938 10938 10937 10936 10936 10936 10936 10936 10937 10937 10937 10937 10936 10935 10934 10932 10931 10930 10928 10927 10924 10922 10921 10921 10921 10919 10918 10916 10915 10914 10914 10913 10912 10911 10910 10909 10909 10909 10910 10910 10911 10913 10914 10915 10916
10936 10937 10937 10937 10937 10937 10936 10935 10934 10934 10934 10935 10935 10935 10934 10932 10931 10931 10929 10927 10925 10923 10921 10918 10917 10915 10914 10914 10912 10911 10910 10909 10908 10907 10906 10903 10902 10901 10899 10899 10898 10898 10898 10898 10898 10899 10901 10903 10904
10933 10935 10935 10935 10935 10935 10935 10934 10933 10933 10933 10932 10932 10933 10932 10931 10930 10929 10927 10924 10922 10919 10916 10912 10911 10909 10907 10906 10905 10904 10902 10901 10900 10899 10896 10893 10891 10889 10888 10887 10886 10885 10884 10884 10885 10885 10887 10889 10891
10930 10932 10934 10934 10933 10933 10932 10932 10932 10931 10931 10931 10932 10931 10930 10929 10928 10927 10924 10921 10917 10912 10909 10907 10905 10903 10901 10899 10896 10895 10894 10892 10891 10889 10888 10884 10882 10881 10878 10876 10873 10871 10869 10868 10868 10870 10872 10873 10875
10929 10929 10932 10933 10931 10930 10930 10930 10930 10929 10928 10930 10932 10928 10927 10927 10925 10923 10920 10915 10911 10907 10903 10901 10899 10897 10895 10894 10890 10888 10885 10883 10881 10880 10878 10877 10873 10869 10866 10864 10862 10860 10856 10854 10853 10853 10854 10855 10856
10928 10927 10929 10930 10929 10928 10928 10928 10927 10927 10926 10928 10927 10925 10925 10924 10922 10919 10915 10911 10906 10902 10899 10896 10895 10893 10891 10888 10886 10883 10880 10877 10875 10872 10868 10865 10862 10859 10855 10849 10847 10844 10843 10840 10838 10838 10838 10839 10839
10929 10926 10927 10927 10927 10925 10925 10924 10923 10924 10924 10925 10923 10922 10921 10921 10918 10915 10910 10906 10902 10898 10895 10892 10890 10888 10885 10884 10880 10877 10872 10870 10868 10864 10860 10855 10850 10846 10841 10837 10833 10831 10828 10827 10824 10823 10821 10821 10821
10927 10927 10925 10923 10923 10924 10923 10922 10921 10922 10922 10921 10921 10918 10917 10917 10915 10911 10906 10903 10899 10895 10891 10888 10885 10884 10881 10878 10875 10870 10865 10861 10857 10853 10847 10841 10836 10830 10827 10825 10821 10818 10815 10812 10810 10808 10807 10806 10804
10927 10925 10924 10923 10921 10921 10920 10919 10919 10920 10919 10917 10917 10915 10914 10914 10912 10909 10906 10902 10898 10894 10891 10888 10884 10881 10878 10873 10869 10865 10860 10854 10847 10840 10835 10830 10823 10818 10814 10811 10809 10805 10802 10798 10795 10794 10792 10791 10790
10925 10924 10923 10922 10920 10919 10916 10916 10918 10918 10916 10914 10914 10913 10911 10909 10909 10907 10904 10900 10897 10893 10889 10885 10881 10877 10871 10866 10861 10856 10852 10846 10839 10832 10826 10819 10815 10810 10805 10801 10798 10794 10789 10786 10783 10780 10779 10776 10773
10923 10922 10921 10920 10918 10917 10914 10914 10915 10913 10911 10910 10909 10909 10907 10905 10903 10902 10900 10897 10894 10891 10885 10880 10875 10870 10865 10860 10855 10850 10844 10837 10830 10823 10816 10812 10806 10800 10794 10790 10786 10782 10778 10775 10772 10769 10766 10763 10760
10921 10920 10919 10918 10916 10915 10911 10911 10912 10909 10907 10905 10905 10905 10904 10900 10898 10896 10894 10891 10888 10884 10880 10874 10870 10865 10860 10856 10850 10844 10838 10830 10822 10814 10807 10801 10794 10789 10783 10778 10773 10769 10765 10762 10758 10755 10752 10748 10744
10919 10919 10918 10916 10914 10912 10908 10907 10907 10905 10903 10901 10900 10899 10898 10895 10893 10890 10887 10884 10881 10878 10876 10869 10863 10859 10853 10847 10842 10837 10830 10824 10817 10810 10802 10793 10785 10778 10772 10766 10761 10756 10753 10748 10744 10740 10736 10731 10726
10916 10916 10915 10914 10911 10909 10906 10904 10904 10901 10899 10897 10895 10894 10893 10890 10887 10884 10881 10877 10875 10870 10866 10862 10857 10850 10844 10839 10833 10828 10822 10815 10809 10802 10794 10786 10778 10771 10763 10757 10751 10745 10740 10735 10731 10726 10722 10716 10710
10914 10913 10913 10911 10909 10906 10903 10901 10899 10898 10896 10894 10893 10889 10887 10884 10881 10878 10875 10872 10868 10865 10860 10855 10850 10843 10838 10832 10825 10818 10812 10806 10800 10792 10784 10777 10769 10761 10754 10747 10740 10733 10728 10723 10717 10712 10707 10700 10694
10911 10910 10909 10907 10905 10904 10902 10899 10895 10894 10893 10891 10889 10886 10882 10879 10875 10872 10869 10866 10862 10858 10853 10848 10842 10836 10831 10825 10817 10809 10802 10796 10789 10782 10775 10767 10760 10753 10744 10736 10730 10722 10714 10707 10700 10692 10688 10680 10675
10908 10907 10906 10904 10903 10900 10898 10894 10891 10889 10888 10886 10884 10880 10877 10874 10869 10867 10864 10860 10856 10851 10846 10840 10834 10829 10822 10814 10807 10800 10793 10786 10777 10771 10765 10755 10747 10738 10730 10723 10715 10707 10700 10693 10685 10678 10669 10663 10657
10904 10903 10902 10900 10897 10894 10892 10889 10887 10885 10882 10879 10876 10875 10872 10868 10863 10860 10856 10851 10848 10844 10838 10831 10825 10820 10812 10805 10798 10790 10782 10774 10765 10756 10745 10735 10726 10719 10713 10705 10697 10690 10683 10675 10668 10659 10652 10644 10640
10900 10899 10898 10895 10893 10889 10886 10884 10882 10878 10875 10873 10871 10868 10865 10860 10856 10853 10849 10845 10840 10834 10826 10820 10815 10808 10800 10793 10785 10776 10766 10755 10745 10733 10724 10716 10709 10703 10696 10689 10681 10673 10665 10656 10651 10643 10632 10625 10619
10896 10895 10892 10891 10889 10885 10882 10878 10877 10873 10870 10868 10865 10861 10856 10852 10850 10847 10842 10837 10832 10823 10814 10808 10801 10795 10785 10777 10769 10759 10748 10737 10726 10717 10709 10703 10695 10687 10679 10670 10662 10653 10644 10635 10628 10621 10613 10605 10597
10892 10891 10888 10887 10885 10882 10879 10875 10872 10868 10865 10861 10859 10855 10850 10846 10843 10839 10833 10826 10819 10811 10803 10795 10788 10780 10774 10765 10755 10745 10734 10724 10712 10704 10693 10683 10674 10665 10656 10648 10639 10631 10622 10612 10603 10597 10589 10581 10573
10888 10886 10884 10882 10880 10878 10875 10869 10864 10861 10858 10855 10852 10849 10844 10840 10836 10830 10822 10816 10808 10800 10793 10785 10777 10769 10758 10749 10740 10729 10718 10709 10699 10689 10677 10666 10654 10642 10630 10621 10613 10603 10594 10587 10579 10572 10563 10556 10549
10883 10882 10880 10877 10875 10873 10869 10865 10860 10856 10852 10848 10844 10840 10835 10832 10827 10820 10814 10807 10800 10792 10783 10774 10765 10757 10746 10736 10725 10715 10704 10693 10682 10671 10658 10644 10631 10618 10605 10593 10582 10574 10566 10559 10551 10545 10540 10533 10527
10879 10877 10876 10874 10870 10866 10862 10858 10855 10851 10846 10841 10836 10831 10828 10824 10818 10812 10805 10797 10789 10781 10771 10762 10754 10744 10733 10722 10711 10700 10689 10678 10665 10651 10638 10624 10609 10594 10580 10570 10559 10550 10541 10534 10527 10522 10516 10511 10503
10874 10873 10870 10867 10864 10862 10857 10852 10850 10845 10840 10835 10829 10824 10819 10814 10809 10803 10796 10787 10779 10769 10761 10752 10742 10732 10720 10707 10693 10681 10668 10656 10642 10628 10612 10595 10583 10571 10558 10548 10539 10530 10522 10515 10509 10503 10496 10488 10482
10868 10866 10864 10861 10858 10854 10850 10845 10843 10838 10833 10828 10822 10816 10811 10806 10800 10792 10785 10777 10769 10760 10751 10741 10730 10718 10703 10689 10675 10663 10651 10635 10618 10600 10586 10573 10561 10550 10539 10529 10521 10513 10506 10499 10492 10484 10475 10468 10461
10861 10860 10857 10854 10852 10847 10842 10837 10835 10830 10826 10821 10815 10809 10804 10797 10789 10782 10776 10768 10759 10749 10738 10726 10713 10701 10686 10672 10657 10642 10628 10610 10591 10576 10563 10551 10539 10528 10518 10508 10502 10495 10489 10482 10475 10467 10459 10451 10442
10854 10852 10850 10847 10844 10841 10835 10826 10827 10822 10818 10813 10807 10801 10794 10787 10780 10772 10764 10755 10746 10735 10724 10711 10698 10684 10669 10653 10635 10619 10600 10584 10568 10554 10540 10530 10517 10508 10498 10489 10484 10478 10473 10468 10460 10453 10444 10434 10423
10846 10844 10842 10838 10835 10831 10827 10820 10816 10813 10810 10805 10799 10792 10785 10777 10769 10761 10753 10743 10732 10720 10708 10695 10680 10665 10649 10633 10613 10594 10577 10561 10544 10528 10515 10504 10494 10486 10480 10473 10469 10465 10460 10454 10448 10439 10430 10418 10405